User: anonymous   Login
Location: Unspecified
(0.0000°N, 0.0000°E)
Time: 03:00:15
(UTC+00:00)
Language:

Galileo 6 - Orbit

View from above orbital plane
View from above orbital plane
View from above satellite
View from above satellite

Ground track
Ground track

The orbit data is extracted from the following two-line orbital elements,

1 40129U 14050B   18321.31303775 -.00000098  00000-0  00000+0 0  9997
2 40129  50.5705  23.4805 1656413  81.6611 296.7274  1.85520521 29086
Epoch (UTC): 17 November 2018 07:30:46
Eccentricity: 0.1656413
inclination: 50.5705°
perigee height: 16965 km
apogee height: 26233 km
right ascension of ascending node: 23.4805°
argument of perigee: 81.6611°
revolutions per day: 1.85520521
mean anomaly at epoch: 296.7274°
orbit number at epoch: 2908

The dashed part of the orbit path shows where the satellite is in the earth's shadow,  

DLR